Tracking 32139 objects as of 14-Nov-2025
HD Live streaming from Space Station
objects crossing your sky now

BEIDOU 2 G8

Track BEIDOU 2 G8 now!
BEIDOU 2 G8 is classified as:


NORAD ID: 44231
Int'l Code: 2019-027A
Perigee: 35,760.7 km
Apogee: 35,827.3 km
Inclination: 1.6 °
Period: 1,436.1 minutes
Semi major axis: 42164 km
RCS: Unknown
Launch date: May 17, 2019
Source: People's Republic of China (PRC)
Launch site: Xichang Space Center, China (XSC)
Your satellite tracking list
Your tracking list is empty




NASA's NSSDC Master Catalog

Two Line Element Set (TLE):
1 44231U 19027A   25318.26783869 -.00000244  00000-0  00000-0 0  9992
2 44231   1.5887  74.6234 0007895 255.3684 324.6129  1.00270864 23924
Source of the keplerian elements: AFSPC